x

Sentry Shoal (46131) Wave Buoy

12:00 - Mon 30th May 2016 All times are PDT. -7 hours from GMT.

  • Sig Wave height 0.3ft
  • Peak Period 4s
  • Wind
    2mph, 4mph gusts
  • Sea Temp 62°f
  • Aire Temp 56°f
  • Sea Pressure 1026.5mb
  • Sentry Shoal
  • Sentry Shoal

More Historic Weather Station data

Upgrade to MSW Pro to gain access to the past 30 days of data for over 8000 Wavebouys and Weather Stations around the globe.

Join Pro

Comparision Forecast

View Surf forecast
   
lun 05/30 12:00 0.3ft 4s 2 4 mph 1026.5mb 62f 56f
11:00 0.3ft 4s 2
mph
1026.7mb 60f 56f
10:00 0.3ft 2s 4
mph
1026.7mb 59f 55f
9:00 0.3ft 2s 7 9 mph 1026.9mb 58f 53f
8:00 0.7ft 2s 9
mph
1026.8mb 58f 53f
7:00 0.7ft 2s 11 13 mph 1026.3mb 58f 53f
6:00 0.7ft 2s 11 13 mph 1025.8mb 58f 53f
5:00 0.7ft 2s 11
mph
1025.7mb 58f 54f
4:00 1ft 2s 9 13 mph 1025.4mb 58f 54f
3:00 1ft 2s 11 13 mph 1025mb 58f 55f
2:00 1.3ft 3s 13 16 mph 1024.6mb 59f 55f
1:00 1ft 3s 11 13 mph 1024.1mb 59f 56f
12:00 1ft 3s 16 18 mph 1023.6mb 59f 57f
dom 05/29 11:00 1ft 3s 9 13 mph 1023.2mb 60f 58f
10:00 1ft 3s 13 16 mph 1022.5mb 60f 60f
9:00 0.3ft 2s 13 16 mph 1021.8mb 61f 62f
8:00 0.3ft 3s 4
mph
1021.6mb 61f 63f
7:00 0.3ft 2s 4 7 mph 1021.4mb 61f 62f
6:00  -  2s 7
mph
1021.2mb 61f 62f
5:00 0.3ft 3s 7 9 mph 1021.2mb 61f 61f
4:00 0.3ft 2s 9
mph
1021.1mb 61f 60f
3:00 0.3ft 2s 4
mph
1021.1mb 61f 60f
2:00 0.3ft 2s 7
mph
1020.9mb 60f 59f
1:00 0.3ft 2s 4 7 mph 1020.8mb 60f 58f
12:00 0.3ft 4s 4 7 mph 1020.5mb 59f 56f
11:00 0.3ft 2s 4 7 mph 1020.1mb 58f 55f
10:00 0.7ft 2s 7 9 mph 1020.1mb 58f 54f
9:00 0.7ft 2s 11 13 mph 1019.8mb 57f 53f
8:00 0.7ft 2s 11 13 mph 1019.3mb 57f 53f
7:00 0.7ft 2s 11 13 mph 1018.7mb 57f 53f
6:00 0.3ft 2s 11
mph
1018.3mb 57f 52f
5:00 0.7ft 2s 9 11 mph 1017.6mb 57f 53f
4:00 0.3ft 2s 7 9 mph 1017.2mb 57f 53f
3:00 0.3ft 2s 9
mph
1016.7mb 57f 53f
2:00 0.7ft 2s 9 11 mph 1016.4mb 57f 53f
1:00 0.7ft 3s 7 9 mph 1016.1mb 57f 53f
12:00 0.7ft 3s 7 9 mph 1016mb 57f 53f
sáb 05/28 11:00 1ft 3s 4
mph
1015.7mb 57f 54f
10:00 0.7ft 3s 4 7 mph 1015.6mb 57f 54f
9:00 1ft 2s 2 4 mph 1015.3mb 57f 53f
8:00 1.3ft 3s 2 4 mph 1015mb 57f 53f
7:00 1.6ft 3s 4 7 mph 1014.8mb 57f 53f
6:00 1.6ft 3s 11
mph
1014.6mb 57f 52f
5:00 1.6ft 4s 2 4 mph 1014.7mb 58f 52f
4:00 2ft 4s 4 7 mph 1014.8mb 58f 52f
3:00 2.5ft 5s 7 9 mph 1014.7mb 58f 51f
2:00 2.5ft 5s 13 16 mph 1014.5mb 58f 51f
1:00 3ft 5s 18 20 mph 1014.1mb 58f 51f
12:00 3.5ft 5s 16 18 mph 1014.1mb 58f 51f
11:00 3ft 5s 13 18 mph 1013.9mb 58f 50f
10:00 2.5ft 4s 18 22 mph 1013.9mb 58f 50f
9:00 2ft 3s 18 20 mph 1014.2mb 58f 50f
8:00 2ft 4s 13 16 mph 1014.5mb 58f 50f
7:00 2.5ft 4s 13 20 mph 1014.7mb 58f 50f
6:00 3ft 4s 18 20 mph 1014.7mb 58f 51f
5:00 2ft 3s 13 18 mph 1015.1mb 58f 51f
4:00 1ft 2s 16 22 mph 1015.4mb 58f 51f
3:00 1ft 2s 11 13 mph 1015.9mb 59f 51f
2:00 1ft 3s 9 11 mph 1016.4mb 58f 52f
1:00 0.3ft 3s 7 11 mph 1016.9mb 59f 53f
12:00 0.3ft 3s 7 9 mph 1017.4mb 59f 53f
vie 05/27 11:00 0.3ft 3s 4 7 mph 1017.7mb 58f 52f
10:00 0.7ft 3s 4 7 mph 1018mb 58f 52f
9:00 1ft 3s 2 4 mph 1018mb 58f 53f
8:00 1ft 3s 2 4 mph 1018.3mb 58f 53f
7:00 0.7ft 3s 2
mph
1018.6mb 58f 53f
6:00 0.3ft 2s  -  2 mph 1018.7mb 58f 54f
5:00 0.3ft 2s 4 7 mph 1018.9mb 58f 55f
4:00 0.3ft 2s 7 9 mph 1019mb 58f 55f
3:00 0.3ft 2s 9
mph
1018.8mb 58f 56f
2:00 0.3ft 2s 7 9 mph 1018.8mb 58f 56f
1:00 0.3ft 3s 7 9 mph 1018.9mb 58f 55f
12:00 0.3ft 2s 2 4 mph 1019.1mb 58f 55f
11:00 0.3ft 2s 4
mph
1019.2mb 58f 55f
10:00 0.3ft 2s 4 7 mph 1019.1mb 57f 54f
9:00 0.7ft 2s 9
mph
1019.1mb 57f 54f
8:00 1ft 2s 11 13 mph 1019.1mb 56f 52f
7:00 1.3ft 3s 13 18 mph 1019mb 56f 51f
6:00 1ft 2s 13 18 mph 1018.9mb 56f 52f
4:00 1.3ft 2s 13 16 mph 1018.8mb 57f 53f
3:00 1.3ft 3s 16 18 mph 1019mb 58f 53f
2:00 1.6ft 3s 18 22 mph 1018.8mb 58f 53f
1:00 1.3ft 3s 18 20 mph 1018.3mb 59f 53f
12:00 1.3ft 2s 16 20 mph 1018.3mb 59f 54f
jue 05/26 11:00 1.3ft 2s 18 22 mph 1018.3mb 59f 55f
10:00 2ft 3s 16 18 mph 1018.4mb 59f 56f
9:00 1.3ft 3s 18 22 mph 1017.9mb 59f 57f